Time,TemperatureF,DewpointF,PressureIn,WindDirection,WindDirectionDegrees,WindSpeedMPH,WindSpeedGustMPH,Humidity,HourlyPrecipIn,Conditions,Clouds,dailyrainin,SoftwareType,DateUTC
2013-02-27 00:00:00,36.1,34.0,29.90,ENE,78,13.0,21.0,92,0.00,-RA,,0.00,WeatherDisplay:10.37,2013-02-27 05:00:00,
2013-02-27 00:05:00,36.1,34.0,29.89,ENE,73,15.0,15.0,92,0.00,-RA,,0.00,WeatherDisplay:10.37,2013-02-27 05:05:00,
2013-02-27 00:10:00,36.1,34.0,29.89,NE,49,23.0,23.0,92,0.00,-RA,,0.00,WeatherDisplay:10.37,2013-02-27 05:10:00,
2013-02-27 00:15:00,36.1,34.0,29.89,ENE,70,19.0,19.0,92,0.00,-RA,,0.00,WeatherDisplay:10.37,2013-02-27 05:15:00,
2013-02-27 00:20:00,36.1,34.3,29.88,East,84,14.0,14.0,93,0.01,-RA,,0.01,WeatherDisplay:10.37,2013-02-27 05:20:00,
2013-02-27 00:25:00,36.1,34.3,29.89,North,5,13.8,13.8,93,0.02,-RA,,0.02,WeatherDisplay:10.37,2013-02-27 05:25:00,
2013-02-27 00:30:00,36.2,34.4,29.90,East,84,17.0,17.0,93,0.03,-RA,,0.03,WeatherDisplay:10.37,2013-02-27 05:30:00,
2013-02-27 00:35:00,36.2,34.4,29.91,ENE,68,16.1,16.1,93,0.04,-RA,,0.04,WeatherDisplay:10.37,2013-02-27 05:35:00,
2013-02-27 00:40:00,36.2,34.4,29.90,NNE,20,11.5,11.5,93,0.00,-RA,,0.06,WeatherDisplay:10.37,2013-02-27 05:40:00,
2013-02-27 00:45:00,36.2,34.4,29.90,NE,36,19.6,19.6,93,0.02,-RA,,0.07,WeatherDisplay:10.37,2013-02-27 05:45:00,
2013-02-27 00:50:00,40.3,39.5,29.50,NE,41,7.0,14.0,97,0.00,CLR,,0.82,WeatherDisplay:10.37,2013-02-27 05:50:00,
2013-02-27 00:51:00,36.2,34.4,29.89,ENE,71,21.9,21.9,93,0.03,-RA,,0.08,WeatherDisplay:10.37,2013-02-27 05:51:00,
2013-02-27 00:55:00,40.5,39.7,29.50,NE,41,10.0,12.0,97,0.00,CLR,,0.82,WeatherDisplay:10.37,2013-02-27 05:55:00,
2013-02-27 00:56:00,36.2,34.4,29.89,NE,51,15.0,15.0,93,0.04,-RA,,0.09,WeatherDisplay:10.37,2013-02-27 05:56:00,
2013-02-27 01:00:00,40.3,39.5,29.50,NE,39,7.0,14.0,97,0.00,CLR,,0.82,WeatherDisplay:10.37,2013-02-27 06:00:00,
2013-02-27 01:01:00,36.2,34.4,29.89,East,91,13.8,13.8,93,0.12,-RA,,0.12,WeatherDisplay:10.37,2013-02-27 06:01:00,
2013-02-27 01:05:00,40.3,39.5,29.50,NE,36,7.0,10.0,97,0.00,CLR,,0.82,WeatherDisplay:10.37,2013-02-27 06:05:00,
2013-02-27 01:06:00,36.2,34.4,29.90,NE,52,18.4,18.4,93,0.14,RA,,0.14,WeatherDisplay:10.37,2013-02-27 06:06:00,
2013-02-27 01:10:00,40.2,39.4,29.50,NE,39,6.0,12.0,97,0.00,CLR,,0.82,WeatherDisplay:10.37,2013-02-27 06:10:00,
2013-02-27 01:11:00,36.2,34.4,29.89,NE,39,17.3,17.3,93,0.15,RA,,0.15,WeatherDisplay:10.37,2013-02-27 06:11:00,
2013-02-27 01:15:00,40.3,39.5,29.50,NE,36,5.0,9.0,97,0.00,CLR,,0.82,WeatherDisplay:10.37,2013-02-27 06:15:00,
2013-02-27 01:16:00,36.2,34.6,29.88,ENE,58,14.0,14.0,94,0.16,RA,,0.17,WeatherDisplay:10.37,2013-02-27 06:16:00,
2013-02-27 01:20:00,40.4,39.6,29.50,NE,37,7.0,9.0,97,0.00,CLR,,0.82,WeatherDisplay:10.37,2013-02-27 06:20:00,
2013-02-27 01:21:00,36.2,34.6,29.87,ENE,70,18.4,18.4,94,0.16,RA,,0.17,WeatherDisplay:10.37,2013-02-27 06:21:00,
2013-02-27 01:25:00,40.3,39.5,29.50,NE,35,6.0,9.0,97,0.00,CLR,,0.82,WeatherDisplay:10.37,2013-02-27 06:25:00,
2013-02-27 01:26:00,36.1,34.5,29.86,ENE,71,20.7,20.7,94,0.15,OVC,,0.17,WeatherDisplay:10.37,2013-02-27 06:26:00,
2013-02-27 01:30:00,40.1,39.3,29.50,NE,36,5.0,11.0,97,0.00,CLR,,0.82,WeatherDisplay:10.37,2013-02-27 06:30:00,
2013-02-27 01:31:00,36.1,34.5,29.85,ENE,61,19.6,19.6,94,0.14,OVC,,0.17,WeatherDisplay:10.37,2013-02-27 06:31:00,
2013-02-27 01:35:00,40.2,39.4,29.50,NE,35,6.0,8.0,97,0.00,CLR,,0.82,WeatherDisplay:10.37,2013-02-27 06:35:00,
2013-02-27 01:36:00,36.2,34.6,29.85,NNE,32,13.8,13.8,94,0.13,OVC,,0.17,WeatherDisplay:10.37,2013-02-27 06:36:00,
2013-02-27 01:40:00,40.4,39.6,29.50,NNE,30,5.0,8.0,97,0.00,CLR,,0.82,WeatherDisplay:10.37,2013-02-27 06:40:00,
2013-02-27 01:41:00,36.3,34.7,29.85,NE,55,19.6,19.6,94,0.11,OVC,,0.17,WeatherDisplay:10.37,2013-02-27 06:41:00,
2013-02-27 01:45:00,40.3,39.5,29.50,NE,40,5.0,7.0,97,0.00,CLR,,0.82,WeatherDisplay:10.37,2013-02-27 06:45:00,
2013-02-27 01:46:00,36.3,34.7,29.84,NE,56,19.6,19.6,94,0.10,OVC,,0.17,WeatherDisplay:10.37,2013-02-27 06:46:00,
2013-02-27 01:50:00,40.4,39.6,29.50,NE,36,5.0,7.0,97,0.00,CLR,,0.82,WeatherDisplay:10.37,2013-02-27 06:50:00,
2013-02-27 01:51:00,36.3,34.7,29.85,NE,49,17.3,17.3,94,0.09,OVC,,0.17,WeatherDisplay:10.37,2013-02-27 06:51:00,
2013-02-27 01:55:00,40.6,39.8,29.50,NE,37,2.0,6.0,97,0.00,CLR,,0.82,WeatherDisplay:10.37,2013-02-27 06:55:00,
2013-02-27 01:56:00,36.3,34.7,29.85,ENE,74,10.4,10.4,94,0.09,-RA,,0.18,WeatherDisplay:10.37,2013-02-27 06:56:00,
2013-02-27 02:00:00,40.8,40.0,29.50,NNE,25,3.0,6.0,97,0.00,CLR,,0.82,WeatherDisplay:10.37,2013-02-27 07:00:00,
2013-02-27 02:01:00,36.3,34.7,29.84,North,11,18.4,18.4,94,0.07,-RA,,0.19,WeatherDisplay:10.37,2013-02-27 07:01:00,
2013-02-27 02:05:00,40.6,39.8,29.50,North,6,3.0,7.0,97,0.00,CLR,,0.82,WeatherDisplay:10.37,2013-02-27 07:05:00,
2013-02-27 02:06:00,36.3,34.7,29.84,NW,314,19.6,19.6,94,0.05,-RA,,0.19,WeatherDisplay:10.37,2013-02-27 07:06:00,
2013-02-27 02:10:00,40.8,40.0,29.50,NNE,18,3.0,6.0,97,0.00,CLR,,0.82,WeatherDisplay:10.37,2013-02-27 07:10:00,
2013-02-27 02:11:00,36.4,34.8,29.83,NNE,32,16.1,16.1,94,0.04,-RA,,0.19,WeatherDisplay:10.37,2013-02-27 07:11:00,
2013-02-27 02:15:00,40.7,39.9,29.51,NNE,32,3.0,8.0,97,0.00,CLR,,0.82,WeatherDisplay:10.37,2013-02-27 07:15:00,
2013-02-27 02:16:00,36.5,34.9,29.83,East,93,13.8,13.8,94,0.03,-RA,,0.20,WeatherDisplay:10.37,2013-02-27 07:16:00,
2013-02-27 02:20:00,40.7,39.9,29.51,NNE,23,1.0,6.0,97,0.00,CLR,,0.82,WeatherDisplay:10.37,2013-02-27 07:20:00,
2013-02-27 02:21:00,36.5,34.9,29.81,East,91,19.6,19.6,94,0.04,-RA,,0.21,WeatherDisplay:10.37,2013-02-27 07:21:00,
2013-02-27 02:25:00,40.9,40.1,29.51,North,3,2.0,5.0,97,0.00,CLR,,0.82,WeatherDisplay:10.37,2013-02-27 07:25:00,
2013-02-27 02:26:00,36.5,34.9,29.81,NNE,15,24.2,24.2,94,0.05,-RA,,0.22,WeatherDisplay:10.37,2013-02-27 07:26:00,
2013-02-27 02:30:00,41.1,40.3,29.51,NNE,14,2.0,7.0,97,0.00,CLR,,0.82,WeatherDisplay:10.37,2013-02-27 07:30:00,
2013-02-27 02:31:00,36.5,34.9,29.81,ESE,105,16.1,16.1,94,0.05,-RA,,0.22,WeatherDisplay:10.37,2013-02-27 07:31:00,
2013-02-27 02:35:00,41.3,40.5,29.51,North,10,2.0,6.0,97,0.00,CLR,,0.82,WeatherDisplay:10.37,2013-02-27 07:35:00,
2013-02-27 02:36:00,36.6,35.0,29.80,NE,55,15.0,15.0,94,0.05,-RA,,0.22,WeatherDisplay:10.37,2013-02-27 07:36:00,
2013-02-27 02:40:00,41.6,40.8,29.52,North,1,5.0,6.0,97,0.00,CLR,,0.82,WeatherDisplay:10.37,2013-02-27 07:40:00,
2013-02-27 02:41:00,36.7,35.1,29.80,ENE,59,16.1,16.1,94,0.05,-RA,,0.22,WeatherDisplay:10.37,2013-02-27 07:41:00,
2013-02-27 02:45:00,41.8,41.0,29.52,NNE,27,0.0,6.0,97,0.00,CLR,,0.82,WeatherDisplay:10.37,2013-02-27 07:45:00,
2013-02-27 02:46:00,36.7,35.4,29.79,NE,54,24.2,24.2,95,0.05,-RA,,0.22,WeatherDisplay:10.37,2013-02-27 07:46:00,
2013-02-27 02:50:00,42.2,41.4,29.52,NNE,19,1.0,4.0,97,0.00,CLR,,0.82,WeatherDisplay:10.37,2013-02-27 07:50:00,
2013-02-27 02:51:00,36.7,35.4,29.78,North,5,19.6,19.6,95,0.05,-RA,,0.22,WeatherDisplay:10.37,2013-02-27 07:51:00,
2013-02-27 02:55:00,42.3,41.5,29.52,NNW,340,3.0,5.0,97,0.00,CLR,,0.82,WeatherDisplay:10.37,2013-02-27 07:55:00,
2013-02-27 02:56:00,36.8,35.5,29.77,ENE,77,19.6,19.6,95,0.04,-RA,,0.22,WeatherDisplay:10.37,2013-02-27 07:56:00,
2013-02-27 03:00:00,42.4,41.6,29.52,NNW,341,3.0,5.0,97,0.00,CLR,,0.82,WeatherDisplay:10.37,2013-02-27 08:00:00,
2013-02-27 03:01:00,36.8,35.5,29.77,NE,47,20.7,20.7,95,0.03,-RA,,0.22,WeatherDisplay:10.37,2013-02-27 08:01:00,
2013-02-27 03:05:00,42.8,42.0,29.52,NNW,335,2.0,4.0,97,0.00,CLR,,0.82,WeatherDisplay:10.37,2013-02-27 08:05:00,
2013-02-27 03:06:00,36.9,35.6,29.77,East,94,20.7,20.7,95,0.03,-RA,,0.22,WeatherDisplay:10.37,2013-02-27 08:06:00,
2013-02-27 03:10:00,42.9,42.9,29.52,North,354,1.0,2.0,100,0.00,CLR,,0.82,WeatherDisplay:10.37,2013-02-27 08:10:00,
2013-02-27 03:11:00,36.9,35.6,29.76,ENE,57,24.2,24.2,95,0.03,-RA,,0.22,WeatherDisplay:10.37,2013-02-27 08:11:00,
2013-02-27 03:15:00,42.9,42.1,29.52,North,7,1.0,3.0,97,0.00,CLR,,0.82,WeatherDisplay:10.37,2013-02-27 08:15:00,
2013-02-27 03:20:00,43.1,43.1,29.53,NNW,331,0.0,2.0,100,0.00,CLR,,0.82,WeatherDisplay:10.37,2013-02-27 08:20:00,
2013-02-27 03:25:00,43.5,43.5,29.53,WNW,288,0.0,1.0,100,0.00,CLR,,0.82,WeatherDisplay:10.37,2013-02-27 08:25:00,
2013-02-27 03:30:00,43.6,43.6,29.53,West,280,3.0,4.0,100,0.00,CLR,,0.82,WeatherDisplay:10.37,2013-02-27 08:30:00,
2013-02-27 03:35:00,43.7,43.7,29.53,WNW,290,2.0,4.0,100,0.00,CLR,,0.82,WeatherDisplay:10.37,2013-02-27 08:35:00,
2013-02-27 03:40:00,44.1,44.1,29.54,West,277,8.0,9.0,100,0.00,CLR,,0.82,WeatherDisplay:10.37,2013-02-27 08:40:00,
2013-02-27 03:45:00,44.8,44.8,29.54,West,260,5.0,8.0,100,0.00,CLR,,0.82,WeatherDisplay:10.37,2013-02-27 08:45:00,
2013-02-27 03:50:00,45.0,45.0,29.54,West,261,9.0,12.0,100,0.00,CLR,,0.82,WeatherDisplay:10.37,2013-02-27 08:50:00,
2013-02-27 03:55:00,45.0,44.2,29.54,West,269,8.0,11.0,97,0.00,CLR,,0.82,WeatherDisplay:10.37,2013-02-27 08:55:00,
2013-02-27 04:00:00,45.1,44.3,29.54,West,269,3.0,10.0,97,0.00,CLR,,0.82,WeatherDisplay:10.37,2013-02-27 09:00:00,
2013-02-27 04:05:00,45.2,44.4,29.54,West,267,8.0,11.0,97,0.00,CLR,,0.82,WeatherDisplay:10.37,2013-02-27 09:05:00,
2013-02-27 04:10:00,45.3,44.5,29.55,West,272,6.0,10.0,97,0.00,CLR,,0.82,WeatherDisplay:10.37,2013-02-27 09:10:00,
2013-02-27 04:15:00,45.4,44.3,29.55,West,269,6.0,12.0,96,0.00,CLR,,0.82,WeatherDisplay:10.37,2013-02-27 09:15:00,
2013-02-27 04:20:00,45.6,44.3,29.55,West,261,5.0,11.0,95,0.00,CLR,,0.82,WeatherDisplay:10.37,2013-02-27 09:20:00,
2013-02-27 04:25:00,45.9,44.5,29.55,West,265,7.0,10.0,95,0.00,CLR,,0.82,WeatherDisplay:10.37,2013-02-27 09:25:00,
2013-02-27 04:30:00,46.0,44.6,29.55,West,271,8.0,11.0,95,0.00,CLR,,0.82,WeatherDisplay:10.37,2013-02-27 09:30:00,
2013-02-27 04:35:00,46.1,44.5,29.56,West,266,5.0,12.0,94,0.00,CLR,,0.82,WeatherDisplay:10.37,2013-02-27 09:35:00,
2013-02-27 04:40:00,46.2,44.6,29.56,West,265,3.0,13.0,94,0.00,CLR,,0.82,WeatherDisplay:10.37,2013-02-27 09:40:00,
2013-02-27 04:45:00,46.4,44.5,29.56,West,272,7.0,11.0,93,0.00,CLR,,0.82,WeatherDisplay:10.37,2013-02-27 09:45:00,
2013-02-27 04:50:00,46.4,43.3,29.56,West,272,12.0,16.0,89,0.00,CLR,,0.82,WeatherDisplay:10.37,2013-02-27 09:50:00,
2013-02-27 04:55:00,46.5,43.1,29.56,West,268,9.0,16.0,88,0.00,CLR,,0.82,WeatherDisplay:10.37,2013-02-27 09:55:00,
2013-02-27 05:00:00,46.8,41.9,29.56,West,270,12.0,19.0,83,0.00,CLR,,0.82,WeatherDisplay:10.37,2013-02-27 10:00:00,
2013-02-27 05:05:00,47.0,42.1,29.56,West,272,9.0,16.0,83,0.00,CLR,,0.82,WeatherDisplay:10.37,2013-02-27 10:05:00,
2013-02-27 05:10:00,47.1,41.9,29.56,West,271,8.0,21.0,82,0.00,CLR,,0.82,WeatherDisplay:10.37,2013-02-27 10:10:00,
2013-02-27 05:15:00,47.1,41.2,29.57,West,267,12.0,17.0,80,0.00,CLR,,0.82,WeatherDisplay:10.37,2013-02-27 10:15:00,
2013-02-27 05:20:00,47.3,41.1,29.57,West,267,9.0,16.0,79,0.00,CLR,,0.82,WeatherDisplay:10.37,2013-02-27 10:20:00,
2013-02-27 05:25:00,47.3,40.8,29.57,West,272,9.0,21.0,78,0.00,CLR,,0.82,WeatherDisplay:10.37,2013-02-27 10:25:00,
2013-02-27 05:30:00,47.3,40.5,29.58,West,270,9.0,22.0,77,0.00,CLR,,0.82,WeatherDisplay:10.37,2013-02-27 10:30:00,
2013-02-27 05:35:00,47.3,39.8,29.59,West,267,12.0,23.0,75,0.00,CLR,,0.82,WeatherDisplay:10.37,2013-02-27 10:35:00,
2013-02-27 05:40:00,47.1,38.9,29.59,West,276,13.0,21.0,73,0.00,CLR,,0.82,WeatherDisplay:10.37,2013-02-27 10:40:00,
2013-02-27 05:45:00,47.0,39.1,29.59,West,281,9.0,20.0,74,0.00,CLR,,0.82,WeatherDisplay:10.37,2013-02-27 10:45:00,
2013-02-27 05:50:00,46.9,39.4,29.59,West,272,8.0,15.0,75,0.00,CLR,,0.82,WeatherDisplay:10.37,2013-02-27 10:50:00,
2013-02-27 05:55:00,46.9,39.4,29.59,West,270,9.0,13.0,75,0.00,CLR,,0.82,WeatherDisplay:10.37,2013-02-27 10:55:00,
2013-02-27 06:00:00,46.7,38.9,29.60,West,270,13.0,20.0,74,0.00,CLR,,0.82,WeatherDisplay:10.37,2013-02-27 11:00:00,
2013-02-27 06:05:00,46.5,39.0,29.60,West,270,8.0,17.0,75,0.00,CLR,,0.82,WeatherDisplay:10.37,2013-02-27 11:05:00,
2013-02-27 06:10:00,46.4,38.2,29.60,West,275,12.0,20.0,73,0.00,CLR,,0.82,WeatherDisplay:10.37,2013-02-27 11:10:00,
2013-02-27 06:15:00,46.3,38.1,29.61,West,275,8.0,15.0,73,0.00,CLR,,0.82,WeatherDisplay:10.37,2013-02-27 11:15:00,
2013-02-27 06:20:00,46.2,38.0,29.61,West,274,10.0,14.0,73,0.00,CLR,,0.82,WeatherDisplay:10.37,2013-02-27 11:20:00,
2013-02-27 06:25:00,46.0,38.2,29.61,WNW,283,10.0,13.0,74,0.00,CLR,,0.82,WeatherDisplay:10.37,2013-02-27 11:25:00,
2013-02-27 06:30:00,45.7,37.5,29.61,WNW,286,10.0,18.0,73,0.00,CLR,,0.82,WeatherDisplay:10.37,2013-02-27 11:30:00,
2013-02-27 06:35:00,45.4,37.6,29.62,WNW,290,8.0,23.0,74,0.00,CLR,,0.82,WeatherDisplay:10.37,2013-02-27 11:35:00,
2013-02-27 06:40:00,45.2,37.4,29.62,WNW,294,10.0,16.0,74,0.00,CLR,,0.82,WeatherDisplay:10.37,2013-02-27 11:40:00,
2013-02-27 06:45:00,45.1,37.6,29.62,WNW,290,5.0,13.0,75,0.00,CLR,,0.82,WeatherDisplay:10.37,2013-02-27 11:45:00,
2013-02-27 06:50:00,45.1,37.6,29.62,WNW,288,12.0,17.0,75,0.00,CLR,,0.82,WeatherDisplay:10.37,2013-02-27 11:50:00,
2013-02-27 06:55:00,45.0,37.6,29.63,WNW,292,7.0,16.0,75,0.00,CLR,,0.82,WeatherDisplay:10.37,2013-02-27 11:55:00,
2013-02-27 07:00:00,44.9,37.8,29.63,WNW,291,3.0,15.0,76,0.00,CLR,,0.82,WeatherDisplay:10.37,2013-02-27 12:00:00,
2013-02-27 07:05:00,44.9,37.5,29.63,WNW,285,5.0,12.0,75,0.00,CLR,,0.82,WeatherDisplay:10.37,2013-02-27 12:05:00,
2013-02-27 07:10:00,44.8,37.7,29.63,WNW,292,5.0,12.0,76,0.00,CLR,,0.82,WeatherDisplay:10.37,2013-02-27 12:10:00,
2013-02-27 07:15:00,44.8,37.4,29.63,WNW,299,7.0,17.0,75,0.00,CLR,,0.82,WeatherDisplay:10.37,2013-02-27 12:15:00,
2013-02-27 07:20:00,44.8,37.4,29.63,WNW,292,6.0,12.0,75,0.00,CLR,,0.82,WeatherDisplay:10.37,2013-02-27 12:20:00,
2013-02-27 07:25:00,44.8,37.4,29.63,WNW,287,5.0,12.0,75,0.00,CLR,,0.82,WeatherDisplay:10.37,2013-02-27 12:25:00,
2013-02-27 07:30:00,44.8,37.7,29.63,WNW,294,6.0,9.0,76,0.00,CLR,,0.82,WeatherDisplay:10.37,2013-02-27 12:30:00,
2013-02-27 07:35:00,44.8,37.7,29.63,WNW,296,5.0,8.0,76,0.00,CLR,,0.82,WeatherDisplay:10.37,2013-02-27 12:35:00,
2013-02-27 07:40:00,44.7,36.9,29.63,NW,307,7.0,16.0,74,0.00,CLR,,0.82,WeatherDisplay:10.37,2013-02-27 12:40:00,
2013-02-27 07:45:00,44.7,37.3,29.63,NW,313,3.0,9.0,75,0.00,CLR,,0.82,WeatherDisplay:10.37,2013-02-27 12:45:00,
2013-02-27 07:50:00,44.7,37.3,29.63,NW,307,6.0,10.0,75,0.00,CLR,,0.82,WeatherDisplay:10.37,2013-02-27 12:50:00,
2013-02-27 07:55:00,44.8,37.4,29.63,WNW,301,6.0,12.0,75,0.00,CLR,,0.82,WeatherDisplay:10.37,2013-02-27 12:55:00,
2013-02-27 08:00:00,44.8,37.4,29.64,WNW,300,5.0,10.0,75,0.00,CLR,,0.82,WeatherDisplay:10.37,2013-02-27 13:00:00,
2013-02-27 08:05:00,44.9,37.5,29.64,WNW,296,3.0,7.0,75,0.00,CLR,,0.82,WeatherDisplay:10.37,2013-02-27 13:05:00,
2013-02-27 08:10:00,44.9,37.1,29.64,NW,305,7.0,12.0,74,0.00,CLR,,0.82,WeatherDisplay:10.37,2013-02-27 13:10:00,
2013-02-27 08:20:00,45.0,36.9,29.64,WNW,298,12.0,17.0,73,0.00,CLR,,0.82,WeatherDisplay:10.37,2013-02-27 13:20:00,
2013-02-27 08:25:00,45.0,37.2,29.64,WNW,298,5.0,18.0,74,0.00,CLR,,0.82,WeatherDisplay:10.37,2013-02-27 13:25:00,
2013-02-27 08:30:00,45.1,37.0,29.65,WNW,301,7.0,15.0,73,0.00,CLR,,0.82,WeatherDisplay:10.37,2013-02-27 13:30:00,
2013-02-27 20:36:00,45.1,36.6,29.65,NNW,334,28.0,28.0,72,0.00,CLR,,0.82,WeatherDisplay:10.37,2013-02-28 01:36:00,
2013-02-27 20:41:00,45.2,36.7,29.65,WNW,293,20.7,20.7,72,0.00,-RA,,0.82,WeatherDisplay:10.37,2013-02-28 01:41:00,
2013-02-27 20:47:00,45.3,37.2,29.65,WNW,283,15.0,15.0,73,0.00,FEW,,0.82,WeatherDisplay:10.37,2013-02-28 01:47:00,
2013-02-27 20:52:00,45.2,37.1,29.65,WSW,250,10.4,10.4,73,0.00,FEW,,0.82,WeatherDisplay:10.37,2013-02-28 01:52:00,
2013-02-27 20:57:00,45.3,36.8,29.65,WNW,302,13.0,13.0,72,0.00,FEW,,0.82,WeatherDisplay:10.37,2013-02-28 01:57:00,
2013-02-27 21:02:00,45.2,36.7,29.66,NW,321,13.0,13.0,72,0.00,BKN,,0.82,WeatherDisplay:10.37,2013-02-28 02:02:00,
2013-02-27 21:07:00,45.2,36.7,29.66,NNW,329,13.8,13.8,72,0.00,BKN,,0.82,WeatherDisplay:10.37,2013-02-28 02:07:00,
2013-02-27 21:12:00,45.1,36.6,29.66,NNW,337,12.7,12.7,72,0.00,BKN,,0.82,WeatherDisplay:10.37,2013-02-28 02:12:00,
2013-02-27 21:17:00,45.1,36.6,29.65,NW,311,15.0,15.0,72,0.00,BKN,,0.82,WeatherDisplay:10.37,2013-02-28 02:17:00,
2013-02-27 21:22:00,45.1,36.6,29.65,NW,304,10.4,10.4,72,0.00,BKN,,0.82,WeatherDisplay:10.37,2013-02-28 02:22:00,
2013-02-27 21:27:00,45.1,36.6,29.65,WNW,300,15.0,15.0,72,0.00,BKN,,0.82,WeatherDisplay:10.37,2013-02-28 02:27:00,
2013-02-27 21:32:00,45.0,36.5,29.65,NW,316,15.0,15.0,72,0.00,BKN,,0.82,WeatherDisplay:10.37,2013-02-28 02:32:00,
2013-02-27 21:37:00,45.1,36.6,29.65,NW,324,11.5,11.5,72,0.00,BKN,,0.82,WeatherDisplay:10.37,2013-02-28 02:37:00,
2013-02-27 21:42:00,45.0,36.5,29.65,NNW,328,15.0,15.0,72,0.00,BKN,,0.82,WeatherDisplay:10.37,2013-02-28 02:42:00,
2013-02-27 21:47:00,45.0,36.5,29.65,NNW,331,11.5,11.5,72,0.00,BKN,,0.82,WeatherDisplay:10.37,2013-02-28 02:47:00,
2013-02-27 21:52:00,45.0,36.5,29.65,WNW,297,11.5,11.5,72,0.00,BKN,,0.82,WeatherDisplay:10.37,2013-02-28 02:52:00,
2013-02-27 21:58:00,45.1,36.6,29.65,NNW,336,9.2,9.2,72,0.00,BKN,,0.82,WeatherDisplay:10.37,2013-02-28 02:58:00,
2013-02-27 22:03:00,45.0,36.5,29.64,NW,311,13.0,13.0,72,0.00,CLR,,0.82,WeatherDisplay:10.37,2013-02-28 03:03:00,
2013-02-27 22:08:00,45.1,36.6,29.64,NNW,335,12.7,12.7,72,0.00,CLR,,0.82,WeatherDisplay:10.37,2013-02-28 03:08:00,
2013-02-27 22:13:00,45.1,36.6,29.64,NW,315,15.0,15.0,72,0.00,CLR,,0.82,WeatherDisplay:10.37,2013-02-28 03:13:00,
2013-02-27 22:18:00,45.1,36.6,29.65,WNW,300,12.7,12.7,72,0.00,CLR,,0.82,WeatherDisplay:10.37,2013-02-28 03:18:00,
2013-02-27 22:23:00,45.1,37.0,29.65,NW,320,11.5,11.5,73,0.00,CLR,,0.82,WeatherDisplay:10.37,2013-02-28 03:23:00,
2013-02-27 22:28:00,45.1,37.0,29.65,NW,314,9.2,9.2,73,0.00,CLR,,0.82,WeatherDisplay:10.37,2013-02-28 03:28:00,
2013-02-27 22:34:00,45.1,37.0,29.64,WNW,284,10.4,10.4,73,0.00,CLR,,0.82,WeatherDisplay:10.37,2013-02-28 03:34:00,
2013-02-27 22:39:00,45.0,36.9,29.64,NW,319,12.7,12.7,73,0.00,CLR,,0.82,WeatherDisplay:10.37,2013-02-28 03:39:00,
2013-02-27 22:44:00,44.9,36.8,29.64,NW,326,8.1,8.1,73,0.00,CLR,,0.82,WeatherDisplay:10.37,2013-02-28 03:44:00,
2013-02-27 22:49:00,44.8,37.0,29.64,WNW,300,8.1,8.1,74,0.00,CLR,,0.82,WeatherDisplay:10.37,2013-02-28 03:49:00,
2013-02-27 22:54:00,44.8,37.0,29.63,North,352,9.2,9.2,74,0.00,CLR,,0.82,WeatherDisplay:10.37,2013-02-28 03:54:00,
2013-02-27 22:59:00,44.7,36.9,29.63,West,270,8.1,8.1,74,0.00,CLR,,0.82,WeatherDisplay:10.37,2013-02-28 03:59:00,
2013-02-27 23:04:00,44.7,36.9,29.64,West,262,6.9,6.9,74,0.00,BKN,,0.82,WeatherDisplay:10.37,2013-02-28 04:04:00,
2013-02-27 23:09:00,44.9,37.1,29.64,WNW,287,3.5,3.5,74,0.00,BKN,,0.82,WeatherDisplay:10.37,2013-02-28 04:09:00,
2013-02-27 23:14:00,44.9,37.1,29.64,NW,304,10.4,10.4,74,0.00,BKN,,0.82,WeatherDisplay:10.37,2013-02-28 04:14:00,
2013-02-27 23:19:00,45.1,37.3,29.64,WSW,253,3.5,3.5,74,0.00,BKN,,0.82,WeatherDisplay:10.37,2013-02-28 04:19:00,
2013-02-27 23:24:00,45.2,37.4,29.63,WSW,253,9.2,9.2,74,0.00,BKN,,0.82,WeatherDisplay:10.37,2013-02-28 04:24:00,
2013-02-27 23:29:00,45.1,37.3,29.63,West,269,7.0,7.0,74,0.00,BKN,,0.82,WeatherDisplay:10.37,2013-02-28 04:29:00,
2013-02-27 23:35:00,45.1,37.3,29.63,West,261,3.0,8.0,74,0.00,BKN,,0.82,WeatherDisplay:10.37,2013-02-28 04:35:00,
2013-02-27 23:40:00,45.1,37.3,29.63,West,262,7.0,12.0,74,0.00,BKN,,0.82,WeatherDisplay:10.37,2013-02-28 04:40:00,
2013-02-27 23:45:00,45.1,37.3,29.63,WSW,250,6.9,6.9,74,0.00,BKN,,0.82,WeatherDisplay:10.37,2013-02-28 04:45:00,
2013-02-27 23:50:00,44.9,37.5,29.62,WSW,250,6.9,6.9,75,0.00,BKN,,0.82,WeatherDisplay:10.37,2013-02-28 04:50:00,
2013-02-27 23:55:00,44.8,37.4,29.62,WSW,245,7.0,9.0,75,0.00,BKN,,0.82,WeatherDisplay:10.37,2013-02-28 04:55:00,